Baraboo, WI

11:10 AM CDT on July 26, 2017 (GMT -0500)
Baraboo Wisconsin Dells

Weather History for KDLL - August, 2014

Change the Weather History Date:

Tuesday, August 12, 2014

  Actual Average Record
Temperature  
Mean Temperature 64 °F -  
Max Temperature 75 °F 80 °F 93 °F (1988)
Min Temperature 54 °F 53 °F 41 °F (1967)
Growing Degree Days 14 (Base 50)    
Moisture  
Dew Point 49 °F    
Average Humidity 61    
Maximum Humidity 81    
Minimum Humidity 38    
Precipitation  
Precipitation 0.00 in - - ()
Sea Level Pressure  
Sea Level Pressure 29.95 in    
Wind  
Wind Speed 9 mph (NW)    
Max Wind Speed 17 mph    
Max Gust Speed 25 mph    
Visibility 10 miles    
Events      
Averages and records for this station are not official NWS values.
T = Trace of Precipitation, MM = Missing Value Source: NWS Daily Summary

Daily Weather History Graph

Daily Weather History Graph

Search for Another Location

Airport or City:

Trip Planner

Search our weather history database for the weather conditions in past years. The results will help you decide how hot, cold, wet, or windy it might be!

Date:

Astronomy

Aug. 12, 2014 Rise Set
Actual Time 6:00 AM CDT 8:06 PM CDT
Civil Twilight 5:29 AM CDT 8:38 PM CDT
Nautical Twilight 4:50 AM CDT 9:16 PM CDT
Astronomical Twilight 4:08 AM CDT 9:58 PM CDT
Moon 9:07 PM CDT (8/12) 8:23 AM CDT (8/12)
Length of Visible Light 15h 08m
Length of Day
14h 06m
Waning Gibbous, 94% of the Moon is Illuminated
Aug 12
Waning Gibbous
Aug 17
Last Quarter
Aug 25
New
Sep 2
First Quarter
Sep 8
Full

Hourly Weather History & Observations

Time (CDT) Temp. Dew Point Humidity Pressure Visibility Wind Dir Wind Speed Gust Speed Precip Events Conditions
3:35 AM 59.4 °F 51.8 °F 76% 29.89 in 10.0 mi NNW 6.9 mph 18.4 mph N/A   Mostly Cloudy
3:55 AM 58.6 °F 52.2 °F 79% 29.89 in 10.0 mi NW 8.1 mph 16.1 mph N/A   Overcast
4:15 AM 58.3 °F 52.0 °F 80% 29.89 in 10.0 mi NW 9.2 mph 16.1 mph N/A   Overcast
4:35 AM 57.7 °F 51.8 °F 81% 29.90 in 10.0 mi NW 9.2 mph 16.1 mph N/A   Overcast
5:35 AM 57.0 °F 50.2 °F 78% 29.91 in 10.0 mi NNW 10.4 mph 17.3 mph N/A   Overcast
5:55 AM 56.5 °F 50.0 °F 79% 29.91 in 10.0 mi NW 13.8 mph 20.7 mph N/A   Overcast
6:15 AM 56.3 °F 50.0 °F 79% 29.91 in 10.0 mi NW 17.3 mph 23.0 mph N/A   Overcast
6:35 AM 56.1 °F 49.8 °F 79% 29.92 in 10.0 mi NW 12.7 mph 19.6 mph N/A   Overcast
6:55 AM 55.9 °F 49.6 °F 79% 29.92 in 10.0 mi NW 12.7 mph 20.7 mph N/A   Overcast
7:15 AM 56.3 °F 50.0 °F 79% 29.93 in 10.0 mi NW 9.2 mph 19.6 mph N/A   Overcast
7:35 AM 56.3 °F 50.0 °F 79% 29.93 in 10.0 mi NW 13.8 mph 19.6 mph N/A   Overcast
7:55 AM 56.7 °F 50.0 °F 78% 29.94 in 10.0 mi NW 11.5 mph 23.0 mph N/A   Overcast
8:15 AM 57.2 °F 50.0 °F 77% 29.94 in 10.0 mi NNW 10.4 mph 20.7 mph N/A   Overcast
8:55 AM 57.9 °F 50.0 °F 75% 29.94 in 10.0 mi NW 9.2 mph 16.1 mph N/A   Overcast
9:35 AM 60.3 °F 49.8 °F 68% 29.94 in 10.0 mi NNW 10.4 mph 24.2 mph N/A   Overcast
9:55 AM 63.3 °F 49.8 °F 61% 29.94 in 10.0 mi NNW 13.8 mph 23.0 mph N/A   Scattered Clouds
10:15 AM 64.8 °F 49.3 °F 57% 29.94 in 10.0 mi NW 12.7 mph 23.0 mph N/A   Scattered Clouds
10:35 AM 66.0 °F 48.7 °F 54% 29.94 in 10.0 mi NNW 13.8 mph 23.0 mph N/A   Scattered Clouds
10:55 AM 67.1 °F 49.3 °F 53% 29.95 in 10.0 mi NW 12.7 mph 24.2 mph N/A   Clear
12:35 PM 70.7 °F 49.1 °F 46% 29.94 in 10.0 mi NNW 11.5 mph 23.0 mph N/A   Scattered Clouds
12:55 PM 69.8 °F 48.7 °F 47% 29.94 in 10.0 mi NNW 13.8 mph 19.6 mph N/A   Scattered Clouds
1:15 PM 71.6 °F 48.2 °F 43% 29.94 in 10.0 mi NW 13.8 mph 23.0 mph N/A   Scattered Clouds
1:35 PM 72.3 °F 48.2 °F 42% 29.93 in 10.0 mi NNW 11.5 mph 17.3 mph N/A   Scattered Clouds
1:55 PM 72.3 °F 48.2 °F 42% 29.94 in 10.0 mi NW 12.7 mph 19.6 mph N/A   Scattered Clouds
2:15 PM 73.8 °F 47.8 °F 40% 29.93 in 10.0 mi NW 12.7 mph 18.4 mph N/A   Scattered Clouds
2:35 PM 72.7 °F 47.3 °F 40% 29.93 in 10.0 mi North 11.5 mph 19.6 mph N/A   Scattered Clouds
3:55 PM 73.4 °F 47.5 °F 40% 29.93 in 10.0 mi NW 12.7 mph 19.6 mph N/A   Scattered Clouds
4:15 PM 74.8 °F 47.7 °F 38% 29.93 in 10.0 mi WNW 13.8 mph 25.3 mph N/A   Scattered Clouds
4:30 PM 75.6 °F 48.0 °F 38% 29.93 in 10.0 mi NW 12.7 mph 17.3 mph N/A   Scattered Clouds
5:15 PM 74.8 °F 47.7 °F 38% 29.94 in 10.0 mi NW 13.8 mph 23.0 mph N/A   Scattered Clouds
5:35 PM 72.7 °F 46.4 °F 39% 29.95 in 10.0 mi NW 11.5 mph 19.6 mph N/A   Scattered Clouds
5:55 PM 74.1 °F 47.1 °F 38% 29.95 in 10.0 mi NW 10.4 mph 16.1 mph N/A   Clear
6:15 PM 74.1 °F 46.9 °F 38% 29.95 in 10.0 mi NNW 9.2 mph 17.3 mph N/A   Scattered Clouds
6:55 PM 72.7 °F 46.8 °F 40% 29.95 in 10.0 mi NNW 6.9 mph - N/A   Clear
7:15 PM 71.8 °F 47.5 °F 42% 29.95 in 10.0 mi NW 6.9 mph - N/A   Clear
7:35 PM 70.7 °F 47.7 °F 44% 29.96 in 10.0 mi NW 5.8 mph - N/A   Clear
7:55 PM 68.5 °F 48.2 °F 48% 29.96 in 10.0 mi NW 3.5 mph - N/A   Clear
8:15 PM 66.0 °F 48.7 °F 54% 29.97 in 10.0 mi WNW 4.6 mph - N/A   Clear
8:35 PM 64.8 °F 48.7 °F 56% 29.97 in 10.0 mi WNW 4.6 mph - N/A   Clear
8:55 PM 63.0 °F 49.6 °F 62% 29.98 in 10.0 mi West 3.5 mph - N/A   Clear
9:35 PM 60.1 °F 49.5 °F 68% 29.99 in 10.0 mi Calm Calm - N/A   Clear
9:55 PM 59.2 °F 49.6 °F 71% 29.99 in 10.0 mi Calm Calm - N/A   Clear
10:15 PM 56.5 °F 49.3 °F 77% 29.99 in 10.0 mi Calm Calm - N/A   Clear
10:35 PM 56.3 °F 49.1 °F 77% 30.00 in 10.0 mi Calm Calm - N/A   Clear
10:55 PM 56.3 °F 49.1 °F 77% 30.00 in 10.0 mi Calm Calm - N/A   Clear
11:15 PM 54.9 °F 48.6 °F 79% 30.00 in 10.0 mi Calm Calm - N/A   Clear
11:35 PM 55.9 °F 49.3 °F 78% 30.00 in 10.0 mi Calm Calm - N/A   Clear
11:55 PM 55.4 °F 49.5 °F 80% 30.00 in 10.0 mi Calm Calm - N/A   Clear